Regional Weather Roundup
Issued by NWS Green Bay, WI

Home | Current Version | Previous Version | Text Only | Print | Product List | Glossary On
Versions: 1 2 3 4 5 6 7 8 9 10 11 12 13 14 15 16 17 18 19 20 21 22 23 24 25 26 27 28 29 30 31 32 33 34 35 36 37 38 39 40 41 42 43 44 45 46 47 48 49 50
000
ASUS43 KGRB 040211
RWRGRB

NORTH-CENTRAL AND NORTHEAST WISCONSIN REGIONAL WEATHER ROUNDUP
NATIONAL WEATHER SERVICE GREEN BAY WI
900 PM CDT THU SEP 03 2015

WIZ005-009-010>012-018-019-040300-
NORTH CENTRAL WISCONSIN

CITY           SKY/WX    TMP DP  RH WIND       PRES   REMARKS
IRONWOOD       CLEAR     64  63  94 E6        29.96R
MANITOWISH WTR   N/A     62  62 100 CALM      30.01R FOG
ARBOR VITAE    CLEAR     66  63  91 CALM      30.01R
EAGLE RIVER    CLEAR     63  63 100 CALM      30.01R FOG
LAND O LAKES     N/A     63  63  99 CALM      30.03R FOG
RHINELANDER    CLEAR     65  62  90 CALM      30.01R
PHILLIPS       CLEAR     69  65  88 CALM      29.99R
ANTIGO         CLEAR     64  63  99 NE5       30.01R
TOMAHAWK       CLEAR     62  61  95 CALM      30.01R
MERRILL        CLEAR     63  62  99 CALM      30.00R FOG
$$

WIZ013-073-040300-
NORTHEAST WISCONSIN

CITY           SKY/WX    TMP DP  RH WIND       PRES   REMARKS
IRON MOUNTAIN  CLEAR     69  61  75 E7        29.99R
MARINETTE      CLEAR     68  61  77 NE6       29.96R
OCONTO         CLEAR     64  64 100 CALM      29.96R
$$

WIZ017-030-035>037-045-040300-
CENTRAL WISCONSIN

CITY           SKY/WX    TMP DP  RH WIND       PRES   REMARKS
MEDFORD        CLEAR     67  66  96 E5        29.99S
WAUSAU         CLEAR     68  65  90 CALM      29.97R
MOSINEE        CLEAR     66  66 100 CALM      29.99R
MARSHFIELD     CLEAR     68  63  84 SE3       29.98R
WISC RAPIDS    CLEAR     68  64  87 E3        29.98R
STEVENS POINT  CLEAR     63  62  97 NE5       29.98R
WAUPACA        CLEAR     67  67  99 CALM      29.97R
SHAWANO        NOT AVBL
CLINTONVILLE   CLEAR     68  64  88 CALM      29.97R
WAUTOMA        CLEAR     66  66 100 CALM      29.98R
$$

WIZ038-039-048-051-040300-
FOX VALLEY

CITY           SKY/WX    TMP DP  RH WIND       PRES   REMARKS
NWS GREEN BAY  CLEAR     68  64  87 NE6       29.96R
APPLETON       PTCLDY    66  64  94 W6        29.95R
OSHKOSH        CLEAR     68  64  87 CALM      29.96R
FOND DU LAC    CLEAR     67  65  93 W3        29.96R
$$

WIZ022-050-052-040300-
EAST CENTRAL WISCONSIN

CITY           SKY/WX    TMP DP  RH WIND       PRES   REMARKS
EPHRAIM        FAIR      66  64  93 N6        29.96R
STURGEON BAY   CLEAR     64  61  88 N5        29.98R
MANITOWOC      CLEAR     65  64  97 MISG      29.96R
SHEBOYGAN      CLEAR     62  61  96 CALM      29.96R FOG
$$

LMZ563-521-522-541>543-040300-
LAKESHORE

STATION/POSITION TIME  TEMP    WIND        PRES    VSBY  WAVE
                       AIR SEA DIR/SP/G                  HT/PER
                 (UTC) (F)     (DEG/KT/KT) (MB)    (MI)  (FT/S)
SHEBOYGAN LKSHOR 0200   63     360/ 10/ 10 1014.6R
KEWAUNEE LKSHORE 0100   65      20/  4/  7 1013.1R
ALGOMA MARINA    0144          330/  4/  5   N/A
NORTHPORT PIER   0100   68     360/  5/  6 1013.9R
N MID LAKE BUOY  0150   69 66   70/ 14/ 16 1013.9R         1/ 3
SISTER BAY LKSHO 0111   67        CALM       N/A
CHAMBERS ISLAND  0100   66     330/  6/  6 1014.2R
MENOMINEE LKSHOR 0100   65      10/  7/  8 1013.0R
$$


USA.gov is the U.S. government's official web portal to all federal, state and local government web resources and services.